Погода в Богучаре

Погода в Богучаре : погода сейчас, прогноз погоды и архив. Всё, что Вы хотите узнать о погоде в Богучаре!

Хотите узнать прогноз погоды в Богучаре? Тогда Вам сюда: Погода в Богучаре

Поиск расширенной информации на нашем сайте:

Другие новости

Новости СМИ2

Главная страница сайта

Новости сайта

02.10.2013

Напоминаем, что на нашем новом сайте вы можете получить высокодетализированные прогнозы погоды по пунктам России, СНГ и мира (включающие важные для авиации метеовеличины, такие как направление и скорость ветра, видимость, явления погоды, количество и форма облачности, нижняя и верхняя граница облачности), а также ознакомиться с разнообразными материалами по авиационной метеорологии и подборкой полезных ссылок на эту тему.

Сайт Метеоцентр.Азия посвящён разработке технологий оптимизации авиаметеорологического обслуживания, включая проектирование и перспективное создание нескольких автоматизированных авиаметеорологических систем:
- система выпуска высокодетальных прогностических карт явлений погоды для нижнего воздушного пространства по России и ближнему зарубежью;
- система верификации прогнозов TAF (выпускаемых синоптиками официальных АМСГ РФ и ближнего зарубежья) и AUTOTAF (выпускаемых сайтом Метеоцентр.Азия) - выявление ошибок, онлайн-сопоставление с фактической погодой METAR, автоматическое внесение коррективов в прогнозы при резком отклонении фактической погоды от прогноза, подсчёт оправдываемости прогнозов по элементам и в целом;
- система обработки, анализа и отображения авиаметеорологической информации для применения провайдерами метеорологической информации.


Погода в Богучаре - сегодня

Время (UTC), дата Ветер
(°,м/с) 
Видим.   Явления Облачность Т
(°С)
Тd
(°С)
f(%) Тe
(°С)
Pmin
(гПа)
dP
(гПа)
Po
(мм)
O2
(г/м3)
Тmin Tmax R s Состояние
почвы
18 22.05.17 290 (З) 20000 м    6/0 верхняя 
[Ci sp]
+9.6 +6.1 79 +11  1011.9  1.3  751  291           
21 22.05.17 320 (СЗ) 20000 м    ясно 
+9.8 +4.4 69 +10  1012.6  0.7  752  292           
00 23.05.17 230 (ЮЗ) 20000 м    ясно 
+4.1 +2.6 90 +5  1013.7  0.9  752  298           
03 23.05.17 200 (Ю) 20000 м    3/0 верхняя 
[Ci sp]
+5.1 +3.2 88 +6  1014.8  1.2  753  298  +1.8        влажная 
06 23.05.17 320 (СЗ) 20000 м    ясно 
+14.4 +2.5 45 +16  1016.5  755  289           
09 23.05.17 290 (З) 20000 м    8/8 1000 м 
[Cu med, cong]
+16.2 +2.2 39 +17  1017.1  0.6  755  287           
12 23.05.17 340 (С) 20000 м    8/8 1000 м 
[Cu med, cong]
+18.7 +2.7 34 +20  1016.4  -0.6  755  284           
15 23.05.17 320 (СЗ) 20000 м    6/5 1000 м верхняя 
[Cu med, cong|Ci fib]
+19.9 +3.2 33 +21  1015.6  -0.7  754  283    +20.2       
18 23.05.17 250 (З) 20000 м    3/0 верхняя 
[Ci fib]
+13.8 +7.5 66 +15  1016.7  0.8  755  288           
21 23.05.17 230 (ЮЗ) 20000 м    4/0 верхняя 
[Ci fib]
+10.3 +6.5 77 +11  1017.5  0.7  755  292           
00 24.05.17 230 (ЮЗ) 20000 м    ясно 
+9.7 +6.3 79 +11  1018.2  0.7  756  293           
03 24.05.17 230 (ЮЗ) 20000 м    9/3 1000 м средняя, верхняя 
[Sc|Ac cast|Cc]
+9.1 +6.5 84 +10  1018.5  0.3  756  294  +8.8         
06 24.05.17 230 (ЮЗ) 20000 м    8/4 1000 м средняя 
[Sc|Ac trans]
+13.7 +8.3 70 +15  1018.7  0.3  756  289           
09 24.05.17 230 (ЮЗ) 20000 м    ясно 
+15 +8.3 64 +16  1018.2  -0.4  756  287           
12 24.05.17 230 (ЮЗ) 20000 м    6/6 1000 м 
[Cu med, cong]
+24.6 +5.9 30 +25  1017.4  -0.5  756  278           
15 24.05.17 230 (ЮЗ) 20000 м    6/3 1000 м средняя 
[Cu med, cong|Ac lent]
+23.6 +7.1 35 +24  1016.6  -0.8  755  279    +26.1       
18 24.05.17 тихо ()   20000 м    ясно 
+16.9 +7.3 53 +17  1017.7  0.9  756  286           
21 24.05.17 200 (Ю) 20000 м    ясно 
+13.4 +7.5 67 +15  1018.8  0.9  757  289           
00 25.05.17 250 (З) 20000 м    ясно 
+9.9 +6.7 80 +11  1018.5  -0.4  756  293           
03 25.05.17 200 (Ю) 20000 м    6/6 1000 м 
[Sc]
+10.6 +7.5 81 +11  1018.4  -0.1  756  292  +9.9         
06 25.05.17 тихо ()   20000 м    8/4 1000 м средняя, верхняя 
[Sc|Ac trans|Ci sp]
+15.8 +10.1 69 +17  1018.9  0.2  757  286           
09 25.05.17 180 (Ю) 20000 м    6/3 1000 м средняя, верхняя 
[Sc|Ac trans|Ci sp]
+21.6 +9.3 45 +22  1018.6  -0.2  757  281           
12 25.05.17 180 (Ю) 20000 м    4/3 1000 м верхняя 
[Cu med, cong|Ci sp]
+23.1 +10.9 46 +25  1017.3  -1.2  756  279           
15 25.05.17 200 (Ю) 20000 м    8/4 600 м кучево-дожд., средняя, верхняя 
[Cb calv|Ac trans|Ci sp]
+21.5 +10.6 50 +23  1016.7  -0.7  755  280    +23.4       
18 25.05.17 200 (Ю) 20000 м    ясно 
+15.8 +10.1 69 +18  1017  0.2  755  286           
Время (UTC), дата Ветер
(°,м/с) 
Видим.   Явления Облачность Т
(°С)
Тd
(°С)
f(%) Тe
(°С)
Pmin
(гПа)
dP
(гПа)
Po
(мм)
O2
(г/м3)
Тmin Tmax R s Состояние
почвы

Для получения пояснительной информации подведите курсор к названию столбца.

ПОГОДА в Богучаре - архив

Всё, что Вы хотите узнать о погоде в Богучаре - удобно и подробно!

Выберите нужную дату (начиная с 1 января 2015* года) и нажмите кнопку "Найти".
Будут отображены архивные сводки погоды по пункту Богучар, начиная с указанной даты.


Отображать данные в формате CSV (для использования в таблицах Excel)


Внимание! Наш архив погоды предназначен исключительно для личного некоммерческого использования в познавательных целях. Если Вам необходимы официальные справки о состоянии погоды (для производственных, юридических, коммерческих и т.п. целей), обращайтесь в органы Росгидромета.

*Примечание: данная дата относится к архиву по метеостанциям СССР (Россия, СНГ, Балтия).
Архив по метеостанциям Зарубежной Европы и Азии (кроме Китая) хранится 10 дней, по другим регионам земного шара (Китай, Африка, Америка, Австралия, Океания) - 1 день.

Богучар - район местоположения метеостанции


Название, широта, долгота, высота метеостанции:
Богучар 49.9°ш. 40.6°д. 84 м над ур. моря [Российская Федерация]

Дополнительная информация

В oтличие oт бoльшинства пoгoдных сайтoв мы публикуем пoдрoбную метеoинфoрмацию в детальнoм прoфессиoнальнoм фoрмате.

Характеристики температуры и влажнoсти вoздуха измеряются на высoте 2 м в тени вдали oт зданий и деревьев.
Скoрoсть ветра измеряется на высoте 10 м (на урoвне рoста челoвека скoрoсть ветра ниже в 1.5-2 раза). Если метеoстанция нахoдится в гoрoде или в лесу, тo скoрoсть ветра занижена на 2-4 м/с пo сравнению с oткрытым местoм. Скoрoсть ветра над акватoриями крупных рек и oзёр, а также на вершинах хoлмoв на 2-5 м/с выше, чем в oбычных услoвиях.
Атмoсфернoе давление в разных тoчках местнoсти мoжет значительнo oтличаться oт давления на метеoстанции, в зависимoсти oт услoвий рельефа (при пoдъёме на 10 м давление пoнижается примернo на 1 мм рт.ст.).